www.pogodaiklimat.ru

Погода и климат >> Архив погоды >> Россия >> Нижегородская область >> Павлово


ПОГОДА в Павлово

  • Прогноз погоды в Павлово
  • Монитор погоды в Павлово

АРХИВ ПОГОДЫ в Павлово

Время (UTC), дата Ветер
(напр.,м/с)
 
Видим.   Явления Облачность Т
(С)
Тd
(С)
f
(%)
Тe
(С)
Тes
(С)
Комфортность P
(гПа)
Po
(гПа)
Тmin
(С)
Tmax
(С)
R
(мм)
R24
(мм)
S
(см)
15 15.01 Ю 2-4
{8}
20 км {снег} 10/10 300 м
[St]
-0.4 -1.2 94 -4 -4 996.4 980.2 -0.2 0.4
18 15.01 ЮВ 1-6
{6}
20 км {снег} 8/8 1000 м
[Sc]
-1.0 -5.6 71 -3 -3 997.9 981.7
21 15.01 штиль 0
{6}
20 км 3/3 1500 м
[Sc]
-3.5 -7.9 72 -4 -4 999.8 983.2
00 16.01 Ю 1-3
{6}
20 км 8/0
[Cs]
-4.4 -7.1 81 -7 -7 1000.2 983.6
03 16.01 ЮВ 1-2
{4}
20 км 10/10 1000 м
[Sc]
-4.8 -6.3 89 -7 -7 999.9 983.3 -5.0 37
06 16.01 штиль 0
{3}
50 км 10/10 600 м
[Sc]
-5.3 -7.4 85 -6 -6 999.5 982.9 -5.8
09 16.01 штиль 0
{2}
10 км слаб. снег 10/10 300 м
[Frnb]
-4.0 -5.9 87 -5 -5 998.5 982.0
12 16.01 З 1-2
{2}
15 км слаб. снег 10/0
[As op]
-4.2 -6.1 87 -7 -7 997.2 980.7
15 16.01 З 2-3
{3}
20 км {снег} 10/0
[As trans]
-5.3 -7.4 85 -10 -10 997.2 980.7 -3.6 0.6
18 16.01 З 2-5
{6}
20 км {снег} 10/0
[As trans]
-7.1 -8.4 90 -12 -12 998.7 982.1
21 16.01 З 3-4
{7}
20 км 10/0
[As op]
-8.2 -9.6 90 -14 -14 1001.1 984.3
00 17.01 З 2-5
{7}
20 км 10/10 1000 м
[Sc]
-8.8 -9.9 92 -13 -13 1002.4 985.6
03 17.01 ЮЗ 1-3
{6}
20 км 10/10 1000 м
[Sc]
-9.6 -11.2 88 -12 -12 1003.8 986.9 -10.2 37
06 17.01 ЮЗ 1-3
{5}
45 км слаб. снег 10/8 300 м
[Frnb As op]
-8.0 -9.8 87 -10 -10 1005.4 988.3
09 17.01 ЮЗ 1-5
{5}
20 км слаб. ливневой снег 9/8 600 м
[Cb cap Ac As]
-6.0 -7.9 86 -8 -8 1006.0 989.2
12 17.01 ЮЗ 1-4
{5}
50 км {ливн. осадки, снег} 6/6 600 м
[Cb cap]
-4.8 -8.0 78 -7 -7 1005.6 988.8
15 17.01 Ю 2-11
{11}
20 км 10/0
[As trans]
-4.5 -8.4 74 -9 -9 1004.0 987.4 -4.4 0.0
18 17.01 ЮЗ 2-7
{11}
20 км слаб. снег 10/0
[As trans]
-4.8 -7.6 81 -9 -9 1001.6 985.0
21 17.01 Ю 2-9
{10}
4000 м снег {метель} 10/0
[As op]
-5.0 -6.0 93 -9 -9 999.2 982.6
00 18.01 ЮЗ 2-6
{11}
20 км позёмок {снег} 10/10 1000 м
[Sc]
-3.6 -6.1 83 -8 -8 998.3 981.8
03 18.01 ЮЗ 2-4
{10}
20 км слаб. снег {метель} 10/9 1000 м
[Sc As op]
-2.9 -4.2 91 -7 -7 998.3 982.0 -5.3 3 39
06 18.01 ЮЗ 2-9
{13}
30 км позёмок {снег} 10/8 300 м
[Frnb As op]
-1.6 -3.6 86 -5 -5 999.6 983.2
09 18.01 ЮЗ 2-6
{9}
35 км {метель} 10/10 1500 м
[Sc]
-0.2 -2.9 82 -4 -4 1001.0 984.7
12 18.01 ЮЗ 1-5
{9}
27 км {метель} 9/9 1500 м
[Sc]
+0.5 -2.1 83 -1 -1 1002.0 985.7
15 18.01 ЮЗ 1-5
{8}
20 км 9/9 1500 м
[Sc]
-0.4 -2.8 84 -2 -2 1003.4 987.1 +0.7 0.0
18 18.01 Ю 1-5
{8}
20 км 9/8 300 м
[Frnb As trans]
-1.3 -3.6 84 -3 -3 1003.2 986.9
21 18.01 Ю 2-7
{7}
4000 м слаб. снег 10/0
[As op]
-0.5 -1.4 94 -4 -4 1000.5 984.2
00 19.01 ЮЗ 2-6
{8}
10 км в посл. час снег 10/0
[As op]
0.0 -0.6 96 -4 -4 1000.3 984.0
03 19.01 ЮЗ 2-7
{8}
20 км 5/5 1500 м
[Sc]
+0.7 -1.0 88 -3 -3 1000.3 984.1 -1.5 4 42
06 19.01 СЗ 5-13
{14}
50 км слаб. ливневой снег 10/10 600 м
[Frnb]
-4.0 -6.2 85 -11 -11 1005.2 988.6 -4.1
09 19.01 З 3-6
{9}
50 км {ливн. осадки} 3/1 600 м
[Sc Ac trans]
-5.1 -8.3 78 -10 -10 1007.9 991.3
12 19.01 З 2-4
{6}
50 км {ливн. осадки} 1/1 600 м
[Sc]
-5.4 -9.6 72 -9 -9 1009.0 992.2
15 19.01 ЮЗ 1-3
{5}
20 км 9/9 600 м
[Sc]
-5.4 -8.3 80 -8 -8 1009.5 992.7 +0.9 0.0
18 19.01 З 1-3
{6}
20 км 9/9 600 м
[Sc]
-5.7 -9.1 77 -8 -8 1010.1 993.3
21 19.01 ЮЗ 1-2
{4}
20 км слаб. снег 10/4 300 м
[Frnb As op]
-7.1 -8.8 88 -10 -10 1010.6 993.8
00 20.01 З 4-7
{7}
20 км {снег} 9/9 600 м
[Sc]
-6.9 -8.9 86 -14 -14 1011.9 995.1
03 20.01 З 3-5
{9}
20 км ясно -10.2 -12.2 85 -16 -16 1014.1 997.0 -10.4 0.0 42
06 20.01 ЮЗ 1-3
{5}
50 км 4/3 1000 м
[Sc diur, vesp Ac trans]
-12.1 -12.7 95 -14 -14 1014.9 997.6 -12.1
09 20.01 ЮЗ 1-4
{6}
50 км 6/0
[Ac trans Ci]
-8.5 -10.8 83 -11 -10 1014.3 997.3
12 20.01 ЮЗ 1-3
{6}
50 км 8/1 1000 м
[Sc diur, vesp Cs]
-5.5 -9.7 72 -8 -7 1011.9 995.1
15 20.01 ЮЗ 3-8
{9}
20 км 10/0
[As op]
-5.3 -9.4 73 -11 -11 1010.9 994.1 -4.7
18 20.01 ЮЗ 2-4
{9}
4000 м снег 10/0
[As trans]
-5.9 -7.0 92 -10 -10 1010.3 993.5
21 20.01 ЮЗ 2-5
{7}
4000 м слаб. снег 10/0
[As trans]
-6.2 -7.4 91 -11 -11 1009.9 993.1
00 21.01 ЮЗ 2-6
{7}
10 км слаб. снег 10/0 300 м
[As trans]
-6.5 -8.1 88 -11 -11 1009.4 992.6
03 21.01 ЮЗ 1-3
{6}
20 км слаб. снег 6/0
[As trans Cs]
-6.7 -8.3 88 -9 -9 1009.0 992.2 -6.8 2 41
06 21.01 ЮЗ 2-5
{6}
4400 м слаб. снег 10/8 300 м
[Frnb As op]
-6.6 -7.8 91 -11 -11 1008.7 991.9 -6.9
09 21.01 З 2-4
{6}
20 км слаб. снег 10/0
[As op]
-6.2 -8.5 84 -11 -10 1008.9 992.1
12 21.01 ЮЗ 1-3
{5}
50 км {снег} 9/9 1000 м
[Sc]
-6.2 -8.5 84 -9 -9 1007.9 991.1
15 21.01 З 2-3
{5}
20 км слаб. снег 10/10 1000 м
[Sc]
-7.5 -8.8 90 -12 -12 1008.0 991.1 -5.9 1
18 21.01 З 2-4
{5}
20 км {ливн. осадки, снег} 9/9 1000 м
[Sc]
-9.8 -13.4 75 -14 -14 1008.6 991.6
21 21.01 З 3-5
{6}
20 км 9/9 1000 м
[Sc]
-12.1 -14.8 80 -18 -18 1009.0 991.9
00 22.01 З 3-5
{7}
20 км ясно -15.1 -16.4 90 -22 -22 1010.1 992.7
03 22.01 З 2-4
{5}
20 км ясно -16.7 -18.6 85 -22 -22 1011.0 993.5 -16.8 0.0 41
06 22.01 З 3-5
{5}
21 км слаб. снег 9/0
[Ac As]
-16.9 -18.8 85 -24 -24 1012.5 995.0 -17.5
09 22.01 З 3-5
{7}
50 км в посл. час снег 6/0
[Ac As]
-16.4 -19.0 80 -23 -23 1014.4 996.9
12 22.01 З 3-6
{6}
50 км {снег} 3/3 1000 м
[Sc]
-15.2 -18.6 75 -22 -22 1015.6 998.0

 

Местоположение метеостанции Павлово (Нижегородская область, Россия): широта 55.95 долгота 43.03 высота над уровнем моря 131 м.

В архиве по умолчанию представлена погода в Павлово за последнюю неделю. Архивные данные за месяц целиком и за предыдущие месяцы, начиная с января 2011 года, Вы можете получить, выбрав интересующий диапазон дат из раскрывающегося списка и нажав кнопку "Ввод!".


*Определитесь, кто Вы:
робот инопланетянин человек

Внимание! Время в таблицах - всемирное. Для получения местного времени необходимо прибавить поправку, которая равна 3 ч.

Смотрите также архив погоды в соседних городах и на ближайших метеорологических станциях:

Погода в Нижнем Новгороде аэропорт (Нижегородская область, Россия) (55 км)
Погода в Балахне (Нижегородская область, Россия) (59 км)
Погода в Вязниках (Владимирская область, Россия) (60 км)
Погода в Дальнем Константиново (Нижегородская область, Россия) (68 км)
Погода в Нижнем Новгороде (Нижегородская область, Россия) (70 км)
Погода в Муроме (Владимирская область, Россия) (74 км)
Погода в Арзамасе (Нижегородская область, Россия) (80 км)
Погода в Волжской ГМО (Нижегородская область, Россия) (85 км)
Погода в Выксе (Нижегородская область, Россия) (90 км)
Погода в Коврове (Владимирская область, Россия) (114 км)

Пояснения к столбцам:

Ветер - указаны скорость ветра в м/с - средняя за 10 мин, порывы в срок и между сроками (в фигурных скобках) и направление, откуда дует ветер: С - северный, СВ - северо-восточный, В - восточный, ЮВ - юго-восточный, Ю - южный, ЮЗ - юго-западный, З - западный, СЗ - северо-западный.
Видимость - горизонтальная дальность видимости в метрах или километрах. При видимости от 1 до 10 км при отсутствии осадков обычно наблюдается дымка, при ухудшении видимости до 1 км и менее - туман. В сухую погоду видимость может ухудшаться дымом, пылью или мглою.
Явления - указаны атмосферные явления, наблюдавшиеся в срок или в последний час перед сроком; фигурными скобками обозначены явления, наблюдавшиеся между сроками (за 1-3 часа до срока); квадратными скобками обозначены град или гололедные отложения с указанием их диаметра в мм.
Облачность - указаны через наклонную черту общая и нижняя облачность в баллах и высота нижней границы облаков в метрах; квадратными скобками обозначены формы облаков: Ci - перистые, Cs - перисто-слоистые, Cc - перисто-кучевые, Ac - высококучевые, As - высокослоистые, Sc - слоисто-кучевые, Ns - слоисто-дождевые, Cu - кучевые, Cb - кучево-дождевые. Подробнее классификацию облаков см. в Атласе облаков (PDF).
T - Температура воздуха - температура, измеренная на высоте 2 м над землей.
Td - Температура точки росы - температура, при понижении до которой содержащийся в воздухе водяной пар достигнет насыщения.
f - Относительная влажность воздуха - влажноcть воздуха, измеренная на высоте 2 м над землей.
Te - Эффективная температура - температура, которую ощущает одетый по сезону человек в тени. Характеристика душности погоды. При расчете учитывается влияние влажности воздуха и скорости ветра на теплоощущения человека.
Tes - Эффективная температура на солнце - температура, которую ощущает человек, с поправкой на солнечный нагрев. Характеристика знойности погоды. Зависит от высоты солнца над горизонтом, облачности и скорости ветра. Ночью, в пасмурную погоду, а также при ветре 12 м/с и более поправка равна нулю.
P - Атмосферное давление - приведенное к уровню моря атмосферное давление.
Po - Атмосферное давление - измеренное на уровне метеостанции атмосферное давление.
Tmin - Минимальная температура - минимум температуры воздуха на высоте 2 м над землей.
Tmax - Максимальная температура - максимум температуры воздуха на высоте 2 м над землей.
R - Количество осадков - Количество выпавших осадков за период времени, мм. При наведении курсора мыши на число - период времени, за который выпало указанное количество осадков.
R24 - Количество осадков - Количество выпавших осадков за 24 часа, мм.
S - Снежный покров - Высота снежного покрова, см. При наведении курсора мыши на число - состояние снежного покрова и степень покрытия местности в баллах.